DAL413 KLAX-KMSP

Flight info

Callsign DAL413
Flight time N/A
Altitude 35000
Route ORCKA5 LAS J146 DVC DCT HBU DCT BRK DCT HCT DCT ONL DCT FSD DCT SSWAN TORGY3
Aircraft B738/M-SDE2E3FGHIRWXY/LB1

Departure

Time 2026-04-26 19:20
Airport Los Angeles International Airport (KLAX)

Arrival

Time N/A
Airport Minneapolis–Saint Paul International Airport / Wold–Chamberlain Field (KMSP)
Time Latitude Longitude Altitude Speed Heading
2026-04-26 18:35 33.94565 -118.40628 92 ft 0 kts 262°
2026-04-26 19:09 33.94565 -118.40627 82 ft 1 kts 262°
2026-04-26 19:10 33.94568 -118.40608 92 ft 3 kts 261°
2026-04-26 19:10 33.94572 -118.40576 92 ft 4 kts 266°
2026-04-26 19:10 33.94572 -118.40559 92 ft 3 kts 279°
2026-04-26 19:10 33.94589 -118.40576 92 ft 4 kts 337°
2026-04-26 19:11 33.94615 -118.40582 94 ft 4 kts 353°
2026-04-26 19:11 33.94630 -118.40584 94 ft 0 kts 354°
2026-04-26 19:14 33.94633 -118.40584 92 ft 2 kts 353°
2026-04-26 19:14 33.94663 -118.40588 92 ft 6 kts 353°
2026-04-26 19:14 33.94711 -118.40594 94 ft 7 kts
2026-04-26 19:14 33.94743 -118.40594 92 ft 7 kts
2026-04-26 19:15 33.94808 -118.40597 93 ft 8 kts 351°
2026-04-26 19:15 33.94857 -118.40593 93 ft 7 kts 40°
2026-04-26 19:15 33.94870 -118.40536 93 ft 7 kts 83°
2026-04-26 19:15 33.94876 -118.40471 94 ft 9 kts 83°
2026-04-26 19:16 33.94886 -118.40372 93 ft 15 kts 83°
2026-04-26 19:16 33.94901 -118.40229 94 ft 18 kts 83°
2026-04-26 19:16 33.94915 -118.40085 94 ft 17 kts 83°
2026-04-26 19:16 33.94933 -118.39953 92 ft 13 kts 68°
2026-04-26 19:17 33.95005 -118.39913 93 ft 12 kts 350°
2026-04-26 19:17 33.95042 -118.39941 94 ft 4 kts 275°
2026-04-26 19:17 33.95041 -118.39973 95 ft 0 kts 263°
2026-04-26 19:19 33.95039 -118.39993 93 ft 14 kts 262°
2026-04-26 19:19 33.94991 -118.40438 96 ft 93 kts 263°
2026-04-26 19:19 33.94870 -118.41486 154 ft 154 kts 258°
2026-04-26 19:20 33.94746 -118.42865 768 ft 172 kts 262°
2026-04-26 19:20 33.94663 -118.43807 1474 ft 168 kts 263°
2026-04-26 19:20 33.94450 -118.45746 2600 ft 186 kts 263°
2026-04-26 19:20 33.94253 -118.47371 2921 ft 209 kts 263°
2026-04-26 19:21 33.94025 -118.49168 3429 ft 222 kts 262°
2026-04-26 19:21 33.93791 -118.50999 4113 ft 223 kts 263°
2026-04-26 19:21 33.93554 -118.52826 4738 ft 220 kts 262°
2026-04-26 19:21 33.93316 -118.54660 5057 ft 224 kts 262°
2026-04-26 19:22 33.92673 -118.56343 5080 ft 230 kts 228°
2026-04-26 19:22 33.91237 -118.57265 5489 ft 242 kts 200°
2026-04-26 19:22 33.89543 -118.57445 6220 ft 251 kts 176°
2026-04-26 19:22 33.87888 -118.56688 6873 ft 263 kts 149°
2026-04-26 19:23 33.86657 -118.55015 7439 ft 276 kts 119°
2026-04-26 19:23 33.86210 -118.52768 8058 ft 281 kts 87°
2026-04-26 19:23 33.86783 -118.50564 8656 ft 278 kts 51°
2026-04-26 19:23 33.88156 -118.48978 9307 ft 274 kts 33°
2026-04-26 19:24 33.89614 -118.47529 9889 ft 279 kts 35°
2026-04-26 19:24 33.91080 -118.45958 10441 ft 283 kts 37°
2026-04-26 19:24 33.93844 -118.42517 11595 ft 292 kts 49°
2026-04-26 19:25 33.94994 -118.40484 12162 ft 295 kts 52°
2026-04-26 19:25 33.95739 -118.39111 12525 ft 297 kts 52°
2026-04-26 19:25 33.97270 -118.36313 13287 ft 300 kts 51°
2026-04-26 19:25 33.98439 -118.34221 13858 ft 302 kts 50°
2026-04-26 19:26 33.99626 -118.32118 14334 ft 305 kts 50°
2026-04-26 19:26 34.00810 -118.30027 14794 ft 308 kts 50°
2026-04-26 19:26 34.02030 -118.27876 15246 ft 314 kts 51°
2026-04-26 19:26 34.03308 -118.25632 15376 ft 335 kts 51°
2026-04-26 19:27 34.04674 -118.23233 15528 ft 360 kts 51°
2026-04-26 19:27 34.06122 -118.20678 15853 ft 377 kts 52°
2026-04-26 19:27 34.07612 -118.18037 16493 ft 383 kts 52°
2026-04-26 19:27 34.09119 -118.15364 17248 ft 388 kts 52°
2026-04-26 19:28 34.10647 -118.12656 17995 ft 392 kts 52°
2026-04-26 19:28 34.12189 -118.09925 18666 ft 397 kts 52°
2026-04-26 19:28 34.13750 -118.07159 19288 ft 401 kts 53°
2026-04-26 19:28 34.15316 -118.04384 19784 ft 409 kts 53°
2026-04-26 19:29 34.16930 -118.01521 20359 ft 414 kts 53°
2026-04-26 19:29 34.18553 -117.98636 21038 ft 416 kts 53°
2026-04-26 19:29 34.20182 -117.95738 21681 ft 419 kts 53°
2026-04-26 19:29 34.21824 -117.92814 22303 ft 423 kts 53°
2026-04-26 19:30 34.23481 -117.89863 22883 ft 427 kts 53°
2026-04-26 19:30 34.25152 -117.86883 23440 ft 431 kts 53°
2026-04-26 19:30 34.26845 -117.83862 23928 ft 435 kts 53°
2026-04-26 19:30 34.27969 -117.81855 24217 ft 438 kts 53°
2026-04-26 19:31 34.30243 -117.77789 24831 ft 443 kts 53°
2026-04-26 19:31 34.31975 -117.74690 25284 ft 446 kts 53°
2026-04-26 19:31 34.33717 -117.71571 25720 ft 450 kts 53°
2026-04-26 19:31 34.35480 -117.68419 26135 ft 454 kts 53°
2026-04-26 19:32 34.37300 -117.65286 26550 ft 457 kts 51°
2026-04-26 19:32 34.39174 -117.62157 26984 ft 460 kts 51°
2026-04-26 19:32 34.41077 -117.59013 27387 ft 464 kts 51°
2026-04-26 19:32 34.42989 -117.55852 27776 ft 468 kts 51°
2026-04-26 19:33 34.44912 -117.52657 28300 ft 468 kts 51°
2026-04-26 19:33 34.46792 -117.49517 28890 ft 468 kts 52°
2026-04-26 19:33 34.48706 -117.46309 29202 ft 473 kts 52°
2026-04-26 19:33 34.50638 -117.43063 29355 ft 481 kts 52°
2026-04-26 19:34 34.52599 -117.39761 29708 ft 485 kts 52°
2026-04-26 19:34 34.54573 -117.36432 30128 ft 486 kts 52°
2026-04-26 19:34 34.56550 -117.33094 30428 ft 489 kts 52°
2026-04-26 19:34 34.58538 -117.29737 30675 ft 493 kts 52°
2026-04-26 19:35 34.60543 -117.26346 30958 ft 495 kts 52°
2026-04-26 19:35 34.62551 -117.22949 31317 ft 496 kts 52°
2026-04-26 19:35 34.64562 -117.19542 31682 ft 496 kts 52°
2026-04-26 19:35 34.66548 -117.16175 31928 ft 498 kts 52°
2026-04-26 19:36 34.68568 -117.12747 32201 ft 501 kts 52°
2026-04-26 19:36 34.69917 -117.10458 32412 ft 502 kts 52°
2026-04-26 19:36 34.72635 -117.05837 32892 ft 503 kts 52°
2026-04-26 19:36 34.74672 -117.02371 33226 ft 504 kts 52°
2026-04-26 19:37 34.76709 -116.98900 33527 ft 506 kts 52°
2026-04-26 19:37 34.78754 -116.95414 33850 ft 507 kts 52°
2026-04-26 19:37 34.80805 -116.91914 34134 ft 508 kts 52°
2026-04-26 19:37 34.82829 -116.88456 34433 ft 509 kts 52°
2026-04-26 19:38 34.84874 -116.84957 34654 ft 506 kts 52°
2026-04-26 19:38 34.86911 -116.81468 34871 ft 504 kts 52°
2026-04-26 19:38 34.90978 -116.74499 34910 ft 506 kts 52°
2026-04-26 19:39 34.95423 -116.67914 34906 ft 501 kts 44°
2026-04-26 19:39 35.00211 -116.61762 34882 ft 499 kts 43°
2026-04-26 19:40 35.04952 -116.55676 34878 ft 498 kts 44°
2026-04-26 19:40 35.09681 -116.49480 34846 ft 498 kts 44°
2026-04-26 19:41 35.14382 -116.43256 34867 ft 498 kts 44°
2026-04-26 19:41 35.18274 -116.38087 34902 ft 497 kts 45°
2026-04-26 19:42 35.23722 -116.30848 34869 ft 497 kts 45°
2026-04-26 19:42 35.28398 -116.24625 34873 ft 497 kts 45°
2026-04-26 19:43 35.33081 -116.18382 34863 ft 497 kts 45°
2026-04-26 19:43 35.37757 -116.12138 34873 ft 497 kts 45°
2026-04-26 19:44 35.42392 -116.05936 34870 ft 497 kts 45°
2026-04-26 19:44 35.47065 -115.99671 34879 ft 498 kts 45°
2026-04-26 19:45 35.51736 -115.93398 34884 ft 498 kts 45°
2026-04-26 19:45 35.56412 -115.87105 34888 ft 499 kts 45°
2026-04-26 19:46 35.61090 -115.80798 34886 ft 500 kts 45°
2026-04-26 19:46 35.65733 -115.74506 34893 ft 501 kts 45°
2026-04-26 19:47 35.69633 -115.69151 34886 ft 501 kts 45°
2026-04-26 19:47 35.75033 -115.61707 34882 ft 502 kts 45°
2026-04-26 19:48 35.79686 -115.55289 34893 ft 502 kts 45°
2026-04-26 19:48 35.84344 -115.48858 34905 ft 503 kts 45°
2026-04-26 19:49 35.88969 -115.42461 34893 ft 503 kts 45°
2026-04-26 19:49 35.93616 -115.36018 34889 ft 502 kts 46°
2026-04-26 19:50 35.98252 -115.29581 34865 ft 501 kts 46°
2026-04-26 19:50 36.02870 -115.23155 34855 ft 499 kts 46°
2026-04-26 19:51 36.07291 -115.16617 34849 ft 500 kts 55°
2026-04-26 19:51 36.10340 -115.08907 34867 ft 500 kts 70°
2026-04-26 19:52 36.12697 -115.00817 34801 ft 501 kts 70°
2026-04-26 19:52 36.15114 -114.92720 34796 ft 502 kts 69°
2026-04-26 19:53 36.17561 -114.84703 34792 ft 502 kts 69°
2026-04-26 19:53 36.20037 -114.76600 34778 ft 503 kts 69°
2026-04-26 19:54 36.22527 -114.68494 34760 ft 505 kts 69°
2026-04-26 19:54 36.25018 -114.60363 34748 ft 505 kts 69°
2026-04-26 19:55 36.27503 -114.52215 34762 ft 506 kts 69°
2026-04-26 19:55 36.29970 -114.44100 34750 ft 507 kts 69°
2026-04-26 19:56 36.32445 -114.35934 34746 ft 506 kts 69°
2026-04-26 19:56 36.34912 -114.27774 34749 ft 504 kts 69°
2026-04-26 19:57 36.37364 -114.19637 34753 ft 503 kts 69°
2026-04-26 19:57 36.39800 -114.11531 34755 ft 501 kts 70°
2026-04-26 19:58 36.42213 -114.03482 34764 ft 500 kts 69°
2026-04-26 19:58 36.44634 -113.95379 34782 ft 501 kts 70°
2026-04-26 19:59 36.47052 -113.87262 34780 ft 502 kts 70°
2026-04-26 19:59 36.49471 -113.79120 34778 ft 503 kts 70°
2026-04-26 20:00 36.51875 -113.71004 34778 ft 504 kts 70°
2026-04-26 20:00 36.54291 -113.62823 34785 ft 505 kts 70°
2026-04-26 20:01 36.56709 -113.54611 34786 ft 507 kts 70°
2026-04-26 20:01 36.59130 -113.46366 34781 ft 508 kts 70°
2026-04-26 20:02 36.61550 -113.38100 34777 ft 509 kts 70°
2026-04-26 20:02 36.63555 -113.31226 34780 ft 509 kts 70°
2026-04-26 20:03 36.66343 -113.21577 34795 ft 510 kts 70°
2026-04-26 20:03 36.68734 -113.13265 34809 ft 510 kts 70°
2026-04-26 20:04 36.71108 -113.04993 34822 ft 510 kts 70°
2026-04-26 20:04 36.73493 -112.96665 34837 ft 510 kts 70°
2026-04-26 20:05 36.75873 -112.88327 34831 ft 510 kts 70°
2026-04-26 20:05 36.78246 -112.79984 34813 ft 510 kts 71°
2026-04-26 20:06 36.80595 -112.71705 34788 ft 509 kts 71°
2026-04-26 20:06 36.82948 -112.63381 34755 ft 509 kts 71°
2026-04-26 20:07 36.85297 -112.55049 34741 ft 508 kts 71°
2026-04-26 20:07 36.87635 -112.46734 34737 ft 508 kts 71°
2026-04-26 20:08 36.89972 -112.38409 34732 ft 507 kts 71°
2026-04-26 20:08 36.92290 -112.30150 34724 ft 507 kts 71°
2026-04-26 20:09 36.94618 -112.21839 34727 ft 507 kts 71°
2026-04-26 20:09 36.96943 -112.13513 34711 ft 507 kts 71°
2026-04-26 20:10 36.99264 -112.05171 34705 ft 508 kts 71°
2026-04-26 20:10 37.01571 -111.96851 34713 ft 510 kts 71°
2026-04-26 20:11 37.03894 -111.88449 34696 ft 512 kts 71°
2026-04-26 20:12 37.07381 -111.75781 34682 ft 513 kts 71°
2026-04-26 20:12 37.09697 -111.67345 34681 ft 511 kts 71°
2026-04-26 20:13 37.11996 -111.58941 34686 ft 509 kts 71°
2026-04-26 20:13 37.14266 -111.50611 34740 ft 507 kts 71°
2026-04-26 20:14 37.16534 -111.42262 34746 ft 505 kts 72°
2026-04-26 20:14 37.18790 -111.33932 34727 ft 504 kts 72°
2026-04-26 20:15 37.21038 -111.25605 34692 ft 503 kts 72°
2026-04-26 20:15 37.23260 -111.17348 34674 ft 503 kts 72°
2026-04-26 20:16 37.25494 -111.09017 34668 ft 504 kts 72°
2026-04-26 20:16 37.27724 -111.00672 34664 ft 504 kts 72°
2026-04-26 20:17 37.29949 -110.92317 34676 ft 505 kts 72°
2026-04-26 20:17 37.32163 -110.83982 34678 ft 506 kts 72°
2026-04-26 20:18 37.34385 -110.75583 34661 ft 508 kts 72°
2026-04-26 20:18 37.36611 -110.67146 34673 ft 509 kts 72°
2026-04-26 20:19 37.38837 -110.58680 34682 ft 511 kts 72°
2026-04-26 20:19 37.41051 -110.50232 34677 ft 512 kts 72°
2026-04-26 20:20 37.43278 -110.41707 34672 ft 513 kts 73°
2026-04-26 20:20 37.45497 -110.33183 34693 ft 513 kts 73°
2026-04-26 20:21 37.47715 -110.24634 34692 ft 513 kts 73°
2026-04-26 20:21 37.49904 -110.16169 34702 ft 512 kts 73°
2026-04-26 20:22 37.52101 -110.07643 34694 ft 512 kts 73°
2026-04-26 20:22 37.54295 -109.99101 34703 ft 512 kts 73°
2026-04-26 20:23 37.56477 -109.90576 34699 ft 511 kts 73°
2026-04-26 20:23 37.58638 -109.82102 34708 ft 511 kts 73°
2026-04-26 20:24 37.60808 -109.73569 34693 ft 511 kts 73°
2026-04-26 20:24 37.62971 -109.65030 34799 ft 511 kts 73°
2026-04-26 20:25 37.65128 -109.56489 34827 ft 511 kts 73°
2026-04-26 20:25 37.67266 -109.47992 34825 ft 511 kts 73°
2026-04-26 20:26 37.69412 -109.39434 34801 ft 512 kts 74°
2026-04-26 20:26 37.71557 -109.30850 34771 ft 512 kts 74°
2026-04-26 20:27 37.73694 -109.22265 34752 ft 513 kts 74°
2026-04-26 20:27 37.75826 -109.13675 34720 ft 513 kts 74°
2026-04-26 20:28 37.77940 -109.05123 34727 ft 514 kts 74°
2026-04-26 20:28 37.80067 -108.96495 34719 ft 514 kts 74°
2026-04-26 20:29 37.82493 -108.88002 34720 ft 513 kts 68°
2026-04-26 20:29 37.85424 -108.79781 34715 ft 513 kts 66°
2026-04-26 20:30 37.88374 -108.71647 34709 ft 511 kts 66°
2026-04-26 20:30 37.91276 -108.63433 34726 ft 511 kts 67°
2026-04-26 20:31 37.94135 -108.55201 34740 ft 510 kts 67°
2026-04-26 20:31 37.96980 -108.46962 34741 ft 510 kts 67°
2026-04-26 20:32 37.99802 -108.38776 34733 ft 511 kts 67°
2026-04-26 20:32 38.02648 -108.30507 34750 ft 512 kts 67°
2026-04-26 20:33 38.05493 -108.22219 34741 ft 513 kts 67°
2026-04-26 20:33 38.08340 -108.13903 34744 ft 514 kts 67°
2026-04-26 20:34 38.11167 -108.05619 34746 ft 515 kts 67°
2026-04-26 20:34 38.14014 -107.97255 34740 ft 516 kts 67°
2026-04-26 20:35 38.16859 -107.88870 34745 ft 517 kts 68°
2026-04-26 20:35 38.19701 -107.80472 34730 ft 517 kts 68°
2026-04-26 20:36 38.22516 -107.72128 34736 ft 516 kts 68°
2026-04-26 20:36 38.25338 -107.63744 34725 ft 515 kts 68°
2026-04-26 20:37 38.28146 -107.55373 34720 ft 513 kts 68°
2026-04-26 20:37 38.30937 -107.47028 34720 ft 511 kts 68°
2026-04-26 20:38 38.33712 -107.38708 34707 ft 510 kts 68°
2026-04-26 20:38 38.36460 -107.30445 34724 ft 509 kts 68°
2026-04-26 20:39 38.39210 -107.22153 34764 ft 508 kts 68°
2026-04-26 20:39 38.41956 -107.13845 34803 ft 509 kts 68°
2026-04-26 20:40 38.44701 -107.05522 34826 ft 509 kts 68°
2026-04-26 20:40 38.46910 -106.97023 34852 ft 508 kts 76°
2026-04-26 20:41 38.48707 -106.88279 34850 ft 509 kts 77°
2026-04-26 20:41 38.49592 -106.83902 34714 ft 510 kts 77°
2026-04-26 20:41 38.50493 -106.79519 34725 ft 510 kts 77°
2026-04-26 20:42 38.52336 -106.70753 34734 ft 512 kts 77°
2026-04-26 20:42 38.54193 -106.62037 34733 ft 512 kts 77°
2026-04-26 20:43 38.56063 -106.53247 34736 ft 513 kts 77°
2026-04-26 20:43 38.57923 -106.44447 34745 ft 513 kts 77°
2026-04-26 20:44 38.59778 -106.35625 34760 ft 513 kts 77°
2026-04-26 20:44 38.61608 -106.26888 34764 ft 512 kts 77°
2026-04-26 20:45 38.63443 -106.18088 34756 ft 511 kts 77°
2026-04-26 20:45 38.65265 -106.09317 34763 ft 509 kts 77°
2026-04-26 20:46 38.67075 -106.00571 34769 ft 509 kts 77°
2026-04-26 20:46 38.68866 -105.91874 34646 ft 508 kts 77°
2026-04-26 20:47 38.70661 -105.83126 34651 ft 508 kts 77°
2026-04-26 20:47 38.72449 -105.74376 34632 ft 508 kts 77°
2026-04-26 20:48 38.74232 -105.65611 34630 ft 508 kts 77°
2026-04-26 20:48 38.75989 -105.56912 34626 ft 508 kts 77°
2026-04-26 20:49 38.77762 -105.48143 34589 ft 508 kts 77°
2026-04-26 20:49 38.79524 -105.39385 34593 ft 507 kts 77°
2026-04-26 20:50 38.81278 -105.30622 34581 ft 507 kts 77°
2026-04-26 20:50 38.83007 -105.21941 34579 ft 505 kts 77°
2026-04-26 20:51 38.84740 -105.13208 34576 ft 505 kts 77°
2026-04-26 20:51 38.86462 -105.04490 34562 ft 504 kts 77°
2026-04-26 20:52 38.88169 -104.95809 34680 ft 501 kts 78°
2026-04-26 20:52 38.89858 -104.87192 34690 ft 502 kts 78°
2026-04-26 20:53 38.91554 -104.78495 34705 ft 503 kts 78°
2026-04-26 20:53 38.93251 -104.69760 34765 ft 505 kts 78°
2026-04-26 20:54 38.95323 -104.61143 34760 ft 508 kts 65°
2026-04-26 20:54 38.98679 -104.53216 34766 ft 509 kts 59°
2026-04-26 20:55 39.02185 -104.45318 34748 ft 509 kts 59°
2026-04-26 20:55 39.05656 -104.37368 34699 ft 510 kts 60°
2026-04-26 20:56 39.09084 -104.29380 34646 ft 510 kts 60°
2026-04-26 20:56 39.12493 -104.21378 34599 ft 509 kts 60°
2026-04-26 20:57 39.15873 -104.13428 34574 ft 509 kts 60°
2026-04-26 20:57 39.19267 -104.05429 34607 ft 508 kts 60°
2026-04-26 20:58 39.22643 -103.97455 34630 ft 505 kts 60°
2026-04-26 20:58 39.25987 -103.89538 34665 ft 501 kts 60°
2026-04-26 20:59 39.29291 -103.81693 34692 ft 500 kts 60°
2026-04-26 20:59 39.32604 -103.73811 34723 ft 500 kts 60°
2026-04-26 21:00 39.35921 -103.65897 34727 ft 502 kts 60°
2026-04-26 21:00 39.37583 -103.61925 34608 ft 503 kts 60°
2026-04-26 21:00 39.39251 -103.57934 34608 ft 505 kts 60°
2026-04-26 21:01 39.42566 -103.49982 34608 ft 507 kts 60°
2026-04-26 21:01 39.45915 -103.41931 34616 ft 509 kts 60°
2026-04-26 21:02 39.49269 -103.33843 34665 ft 508 kts 61°
2026-04-26 21:02 39.52568 -103.25868 34625 ft 498 kts 61°
2026-04-26 21:03 39.55819 -103.17990 34668 ft 500 kts 61°
2026-04-26 21:03 39.59096 -103.10028 34647 ft 502 kts 61°
2026-04-26 21:04 39.62380 -103.02030 34684 ft 503 kts 61°
2026-04-26 21:04 39.65664 -102.94008 34686 ft 504 kts 61°
2026-04-26 21:05 39.68951 -102.85958 34718 ft 505 kts 61°
2026-04-26 21:05 39.72213 -102.77950 34717 ft 505 kts 61°
2026-04-26 21:06 39.75493 -102.69876 34720 ft 505 kts 62°
2026-04-26 21:06 39.78766 -102.61796 34775 ft 505 kts 62°
2026-04-26 21:07 39.82029 -102.53718 34753 ft 504 kts 62°
2026-04-26 21:07 39.85260 -102.45702 34749 ft 503 kts 62°
2026-04-26 21:08 39.88500 -102.37640 34740 ft 502 kts 62°
2026-04-26 21:08 39.91723 -102.29599 34770 ft 500 kts 62°
2026-04-26 21:09 39.94931 -102.21573 34774 ft 499 kts 62°
2026-04-26 21:09 39.98110 -102.13599 34782 ft 499 kts 62°
2026-04-26 21:10 40.01302 -102.05572 34780 ft 499 kts 62°
2026-04-26 21:10 40.04491 -101.97532 34779 ft 498 kts 62°
2026-04-26 21:11 40.07673 -101.89487 34795 ft 499 kts 62°
2026-04-26 21:11 40.10827 -101.81490 34800 ft 499 kts 62°
2026-04-26 21:12 40.14008 -101.73405 34814 ft 500 kts 62°
2026-04-26 21:12 40.17182 -101.65315 34784 ft 500 kts 62°
2026-04-26 21:13 40.20348 -101.57224 34797 ft 500 kts 62°
2026-04-26 21:13 40.23489 -101.49173 34808 ft 500 kts 62°
2026-04-26 21:14 40.26654 -101.41041 34814 ft 501 kts 62°
2026-04-26 21:14 40.29810 -101.32908 34812 ft 501 kts 63°
2026-04-26 21:15 40.32961 -101.24768 34810 ft 501 kts 63°
2026-04-26 21:15 40.36087 -101.16667 34820 ft 501 kts 63°
2026-04-26 21:16 40.38716 -101.09839 34832 ft 501 kts 63°
2026-04-26 21:16 40.42350 -101.00374 34821 ft 499 kts 63°
2026-04-26 21:17 40.45195 -100.93809 34828 ft 496 kts 52°
2026-04-26 21:17 40.49915 -100.87331 34829 ft 489 kts 36°
2026-04-26 21:18 40.56087 -100.80865 34828 ft 488 kts 35°
2026-04-26 21:18 40.61392 -100.75302 34827 ft 488 kts 36°
2026-04-26 21:19 40.65777 -100.70637 34846 ft 488 kts 36°